GW2194 Weather Reports


Display with metric or nautical units.
time (UTC)temp
F
wind
direction
speed
MPH
gust
MPH
rain 1hr
in
rain 24hr
in
rain mn
in
humidity
%
barometer
mb
20260831002506 70 309 0.0 0.0 0.00 0.00 0.00 92 1024.2
20260831002001 70 309 0.0 0.0 0.00 0.00 0.00 92 1024.0
20260831001456 71 309 0.0 0.0 0.00 0.00 0.00 91 1024.1
20260831000954 71 263 1.0 2.0 0.00 0.00 0.00 91 1023.6
20260831000449 71 235 0.0 0.0 0.00 0.00 0.00 90 1023.9
20260830235947 72 263 0.0 1.0 0.00 0.00 0.00 89 1024.0
20260830235443 72 321 0.0 2.0 0.00 0.00 0.00 88 1024.0
20260830234938 72 15 0.0 2.0 0.00 0.00 0.00 87 1023.9
20260830234433 73 265 2.0 2.0 0.00 0.00 0.00 86 1023.6
20260830233929 73 291 2.0 3.0 0.00 0.00 0.00 85 1023.5
20260830233424 74 12 2.0 3.0 0.00 0.00 0.00 84 1023.8
20260830232919 75 24 1.0 2.0 0.00 0.00 0.00 83 1023.7
20260830232415 75 283 2.0 3.0 0.00 0.00 0.00 81 1023.6
20260830231912 76 281 0.0 1.0 0.00 0.00 0.00 79 1023.7
20260830231407 76 321 0.0 1.0 0.00 0.00 0.00 78 1023.7
20260830230906 77 315 1.0 2.0 0.00 0.00 0.00 77 1023.6
20260830230402 77 269 2.0 2.0 0.00 0.00 0.00 75 1023.7
20260830225901 78 269 2.0 2.0 0.00 0.00 0.00 73 1023.5
20260830225356 78 242 0.0 0.0 0.00 0.00 0.00 72 1023.6
20260830224850 78 322 0.0 0.0 0.00 0.00 0.00 71 1023.7
20260830224349 78 281 0.0 0.0 0.00 0.00 0.00 72 1023.9
20260830223847 78 309 0.0 0.0 0.00 0.00 0.00 71 1024.0
20260830223343 78 247 0.0 2.0 0.00 0.00 0.00 70 1023.9
20260830222842 80 257 2.0 3.0 0.00 0.00 0.00 67 1023.8
20260830222337 80 265 2.0 3.0 0.00 0.00 0.00 65 1024.0
20260830221838 80 255 2.0 2.0 0.00 0.00 0.00 65 1024.0
20260830221334 80 252 2.0 3.0 0.00 0.00 0.00 66 1023.8
20260830220830 80 233 3.0 3.0 0.00 0.00 0.00 65 1024.0
20260830220329 82 223 2.0 3.0 0.00 0.00 0.00 63 1024.1
20260830215827 79 297 0.0 1.0 0.00 0.00 0.00 69 1023.8
20260830215322 76 44 2.0 3.0 0.00 0.00 0.00 73 1024.0
20260830214817 77 354 3.0 4.0 0.00 0.00 0.00 73 1024.1
20260830214312 77 18 3.0 8.0 0.00 0.00 0.00 73 1023.9
20260830213811 77 70 5.0 8.0 0.00 0.00 0.00 72 1024.1
20260830213307 77 51 4.0 5.0 0.00 0.00 0.00 73 1024.3
20260830212803 76 8 3.0 5.0 0.00 0.00 0.00 75 1024.3
20260830212258 77 96 3.0 8.0 0.00 0.00 0.00 73 1024.1
20260830211757 77 69 5.0 8.0 0.00 0.00 0.00 74 1024.2
20260830211256 77 14 2.0 4.0 0.00 0.00 0.00 77 1024.6
20260830210753 77 333 0.0 4.0 0.00 0.00 0.00 78 1024.3
20260830210251 77 59 1.0 3.0 0.00 0.00 0.00 78 1024.3
20260830205749 77 347 2.0 3.0 0.00 0.00 0.00 78 1023.8
20260830205244 78 342 2.0 2.0 0.00 0.00 0.00 76 1024.2
20260830204740 78 265 0.0 2.0 0.00 0.00 0.00 76 1023.7
20260830204238 78 8 2.0 3.0 0.00 0.00 0.00 75 1023.8
20260830203734 79 333 0.0 1.0 0.00 0.00 0.00 71 1024.0
20260830203230 79 324 2.0 3.0 0.00 0.00 0.00 70 1023.8
20260830202729 80 1 3.0 4.0 0.00 0.00 0.00 69 1023.8
20260830202225 80 344 3.0 5.0 0.00 0.00 0.00 69 1023.7
20260830201724 79 24 4.0 6.0 0.00 0.00 0.00 69 1023.8
20260830201220 80 13 4.0 7.0 0.00 0.00 0.00 67 1023.7
20260830200715 80 316 2.0 3.0 0.00 0.00 0.00 67 1024.0
20260830200215 81 7 4.0 5.0 0.00 0.00 0.00 65 1023.8
20260830195710 81 341 3.0 10.0 0.00 0.00 0.00 65 1023.8
20260830195208 80 343 4.0 4.0 0.00 0.00 0.00 67 1023.9
20260830194707 80 85 4.0 7.0 0.00 0.00 0.00 67 1024.2
20260830194202 79 83 2.0 7.0 0.00 0.00 0.00 68 1024.1
20260830193656 79 83 6.0 7.0 0.00 0.00 0.00 72 1024.2
20260830193150 80 30 6.0 11.0 0.00 0.00 0.00 69 1024.2
20260830192646 80 48 3.0 6.0 0.00 0.00 0.00 70 1024.1
20260830192141 80 37 5.0 8.0 0.00 0.00 0.00 69 1024.2
20260830191637 82 136 2.0 11.0 0.00 0.00 0.00 68 1024.3
20260830191131 82 15 4.0 8.0 0.00 0.00 0.00 65 1024.7
20260830190627 82 23 1.0 3.0 0.00 0.00 0.00 73 1024.7
20260830190121 81 49 4.0 8.0 0.00 0.00 0.00 65 1024.8
20260830185615 81 344 4.0 9.0 0.00 0.00 0.00 65 1024.9
20260830185111 80 312 2.0 5.0 0.00 0.00 0.00 72 1024.8
20260830184610 80 36 4.0 5.0 0.00 0.00 0.00 66 1024.8
20260830184110 80 17 3.0 7.0 0.00 0.00 0.00 68 1024.7
20260830183605 79 64 2.0 3.0 0.00 0.00 0.00 71 1025.0
20260830183101 80 72 5.0 6.0 0.00 0.00 0.00 67 1025.1
20260830182555 84 30 8.0 9.0 0.00 0.00 0.00 64 1025.1
20260830182052 83 238 5.0 6.0 0.00 0.00 0.00 60 1024.8
20260830181548 83 226 5.0 6.0 0.00 0.00 0.00 61 1025.3
20260830181047 82 250 0.0 4.0 0.00 0.00 0.00 66 1025.1
20260830180547 79 89 0.0 0.0 0.00 0.00 0.00 69 1025.1
20260830180046 80 28 1.0 5.0 0.00 0.00 0.00 66 1025.4
20260830175545 80 343 3.0 6.0 0.00 0.00 0.00 65 1025.3
20260830175041 80 267 1.0 3.0 0.00 0.00 0.00 67 1025.1
20260830174536 82 332 8.0 11.0 0.00 0.00 0.00 62 1025.4
20260830174031 84 337 5.0 5.0 0.00 0.00 0.00 58 1025.4
20260830173527 84 226 5.0 5.0 0.00 0.00 0.00 56 1025.1
20260830173021 83 168 2.0 7.0 0.00 0.00 0.00 57 1025.3
20260830172519 84 219 8.0 9.0 0.00 0.00 0.00 56 1025.2
20260830172015 84 225 5.0 10.0 0.00 0.00 0.00 56 1025.3
20260830171509 84 212 2.0 6.0 0.00 0.00 0.00 59 1025.3
20260830171009 83 231 1.0 2.0 0.00 0.00 0.00 63 1025.4
20260830170504 82 271 1.0 4.0 0.00 0.00 0.00 63 1025.3
20260830170002 82 16 3.0 7.0 0.00 0.00 0.00 66 1025.3
20260830165458 81 254 2.0 5.0 0.00 0.00 0.00 64 1025.4
20260830164954 82 16 5.0 6.0 0.00 0.00 0.00 66 1025.7
20260830164449 80 253 2.0 4.0 0.00 0.00 0.00 65 1025.6
20260830163946 81 188 0.0 4.0 0.00 0.00 0.00 64 1025.9
20260830163443 81 251 4.0 6.0 0.00 0.00 0.00 66 1025.8
20260830162941 81 329 2.0 4.0 0.00 0.00 0.00 66 1025.9
20260830162437 79 328 1.0 3.0 0.00 0.00 0.00 68 1025.7
20260830161932 81 34 3.0 4.0 0.00 0.00 0.00 65 1025.7
20260830161431 80 16 2.0 4.0 0.00 0.00 0.00 65 1025.9
20260830160926 79 335 0.0 4.0 0.00 0.00 0.00 69 1025.7
20260830160423 79 4 3.0 5.0 0.00 0.00 0.00 70 1026.0
20260830155917 80 18 3.0 5.0 0.00 0.00 0.00 67 1025.9
20260830155414 79 309 0.0 2.0 0.00 0.00 0.00 68 1026.1
20260830154908 80 37 3.0 7.0 0.00 0.00 0.00 66 1026.0
20260830154404 80 53 3.0 3.0 0.00 0.00 0.00 70 1026.0
20260830153901 78 101 0.0 2.0 0.00 0.00 0.00 68 1026.0
20260830153356 79 325 2.0 5.0 0.00 0.00 0.00 68 1026.0
20260830152855 79 5 5.0 11.0 0.00 0.00 0.00 69 1026.0
20260830152350 80 266 3.0 7.0 0.00 0.00 0.00 66 1026.3
20260830151844 81 217 2.0 6.0 0.00 0.00 0.00 67 1026.0
20260830151343 78 264 2.0 2.0 0.00 0.00 0.00 69 1026.0
20260830150839 78 82 1.0 3.0 0.00 0.00 0.00 74 1025.9
20260830150338 77 50 0.0 2.0 0.00 0.00 0.00 74 1025.8
20260830145833 77 89 0.0 2.0 0.00 0.00 0.00 77 1025.9
20260830145328 76 67 0.0 3.0 0.00 0.00 0.00 73 1026.1
20260830144823 75 1 1.0 2.0 0.00 0.00 0.00 78 1026.1
20260830144319 75 54 1.0 3.0 0.00 0.00 0.00 77 1026.1
20260830143814 73 44 0.0 1.0 0.00 0.00 0.00 81 1026.1
20260830143309 73 6 0.0 2.0 0.00 0.00 0.00 79 1026.0
20260830142803 73 79 2.0 2.0 0.00 0.00 0.00 80 1026.2
20260830142258 71 69 0.0 2.0 0.00 0.00 0.00 81 1026.2
20260830141754 71 48 0.0 2.0 0.00 0.00 0.00 81 1026.1
20260830141248 70 88 1.0 2.0 0.00 0.00 0.00 82 1026.1
20260830140749 70 88 1.0 2.0 0.00 0.00 0.00 84 1026.4
20260830140243 69 52 1.0 2.0 0.00 0.00 0.00 85 1026.2
20260830135738 68 47 2.0 2.0 0.00 0.00 0.00 87 1026.1
20260830135234 67 67 2.0 2.0 0.00 0.00 0.00 90 1026.0
20260830134729 66 78 2.0 3.0 0.00 0.00 0.00 97 1026.1
20260830134224 66 68 2.0 2.0 0.00 0.00 0.00 97 1026.2
20260830133720 66 64 1.0 2.0 0.00 0.00 0.00 97 1026.1
20260830133215 65 142 0.0 0.0 0.00 0.00 0.00 97 1026.2
20260830132711 63 32 0.0 0.0 0.00 0.00 0.00 97 1026.1
20260830132207 63 84 0.0 2.0 0.00 0.00 0.00 97 1026.4
20260830131705 63 37 0.0 0.0 0.00 0.00 0.00 97 1026.3
20260830131205 63 13 2.0 2.0 0.00 0.00 0.00 97 1026.5
20260830130701 63 57 1.0 2.0 0.00 0.00 0.00 97 1026.5
20260830130200 62 43 1.0 2.0 0.00 0.00 0.00 97 1026.6
20260830125654 63 63 0.0 2.0 0.00 0.00 0.00 97 1026.6
20260830125149 62 63 0.0 2.0 0.00 0.00 0.00 97 1026.5
20260830124647 63 50 0.0 1.0 0.00 0.00 0.00 97 1026.4
20260830124143 63 65 1.0 2.0 0.00 0.00 0.00 97 1026.3
20260830123640 63 47 1.0 2.0 0.00 0.00 0.00 97 1026.4
20260830123135 63 21 1.0 1.0 0.00 0.00 0.00 97 1026.4
20260830122632 63 13 0.0 0.0 0.00 0.00 0.00 97 1026.4
20260830122127 62 22 0.0 0.0 0.00 0.00 0.00 97 1026.4
20260830121624 62 37 0.0 0.0 0.00 0.00 0.00 97 1026.4
20260830121123 62 290 0.0 0.0 0.00 0.00 0.00 97 1026.6
20260830120618 62 37 0.0 0.0 0.00 0.00 0.00 97 1026.6
20260830120114 62 34 0.0 1.0 0.00 0.00 0.00 97 1026.5
20260830115610 62 24 0.0 2.0 0.00 0.00 0.00 97 1026.5
20260830115105 62 303 0.0 2.0 0.00 0.00 0.00 97 1026.5
20260830114602 62 29 0.0 1.0 0.00 0.00 0.00 97 1026.6
20260830114101 62 358 2.0 2.0 0.00 0.00 0.00 97 1026.6
20260830113557 62 38 1.0 1.0 0.00 0.00 0.00 97 1026.4
20260830113052 62 336 0.0 2.0 0.00 0.00 0.00 97 1026.2
20260830112548 62 218 0.0 0.0 0.00 0.00 0.00 97 1026.3
20260830112044 62 353 1.0 1.0 0.00 0.00 0.00 97 1026.3
20260830111539 62 332 0.0 2.0 0.00 0.00 0.00 97 1026.4
20260830111035 62 44 0.0 1.0 0.00 0.00 0.00 97 1026.4
20260830110535 62 0 0.0 1.0 0.00 0.00 0.00 97 1026.6
20260830110030 62 355 1.0 2.0 0.00 0.00 0.00 97 1026.4
20260830105525 62 7 0.0 1.0 0.00 0.00 0.00 97 1026.3
20260830105021 62 356 2.0 3.0 0.00 0.00 0.00 97 1026.3
20260830104518 62 357 2.0 3.0 0.00 0.00 0.00 97 1026.3
20260830104014 62 18 1.0 2.0 0.00 0.00 0.00 97 1026.0
20260830103509 62 16 1.0 1.0 0.00 0.00 0.00 97 1026.2
20260830103007 62 50 0.0 0.0 0.00 0.00 0.00 97 1025.9
20260830102502 62 293 0.0 0.0 0.00 0.00 0.00 97 1026.1
20260830101958 62 230 0.0 0.0 0.00 0.00 0.00 97 1025.8
20260830101454 62 55 0.0 0.0 0.00 0.00 0.00 97 1026.0
20260830100953 62 39 0.0 0.0 0.00 0.00 0.00 97 1026.1
20260830100452 62 21 1.0 1.0 0.00 0.00 0.00 97 1026.2
20260830095950 62 10 1.0 2.0 0.00 0.00 0.00 97 1025.9
20260830095447 63 350 3.0 3.0 0.00 0.00 0.00 97 1026.2
20260830094942 63 2 2.0 2.0 0.00 0.00 0.00 97 1025.9
20260830094438 63 0 1.0 2.0 0.00 0.00 0.00 97 1026.1
20260830093934 63 0 0.0 0.0 0.00 0.00 0.00 97 1025.9
20260830093429 63 309 0.0 0.0 0.00 0.00 0.00 97 1025.9
20260830092925 63 32 0.0 0.0 0.00 0.00 0.00 97 1025.8
20260830092420 63 22 0.0 0.0 0.00 0.00 0.00 97 1026.1
20260830091917 63 322 0.0 0.0 0.00 0.00 0.00 97 1026.1
20260830091417 63 352 0.0 1.0 0.00 0.00 0.00 97 1026.0
20260830090915 63 352 0.0 1.0 0.00 0.00 0.00 97 1026.2
20260830090411 63 0 2.0 2.0 0.00 0.00 0.00 97 1025.9
20260830085906 63 0 2.0 2.0 0.00 0.00 0.00 97 1026.2
20260830085400 63 355 2.0 2.0 0.00 0.00 0.00 97 1026.0
20260830084856 63 326 0.0 0.0 0.00 0.00 0.00 97 1026.0
20260830084351 63 22 0.0 1.0 0.00 0.00 0.00 97 1026.3
20260830083847 63 344 1.0 2.0 0.00 0.00 0.00 97 1026.1
20260830083343 63 0 0.0 2.0 0.00 0.00 0.00 97 1026.0
20260830082842 63 6 0.0 1.0 0.00 0.00 0.00 97 1026.1
20260830082337 63 7 1.0 1.0 0.00 0.00 0.00 97 1026.1
20260830081833 63 13 0.0 2.0 0.00 0.00 0.00 97 1026.1
20260830081332 63 326 0.0 1.0 0.00 0.00 0.00 97 1026.0
20260830080827 63 66 0.0 0.0 0.00 0.00 0.00 97 1026.1
20260830080326 63 29 0.0 0.0 0.00 0.00 0.00 97 1026.1
20260830075822 63 4 0.0 0.0 0.00 0.00 0.00 97 1025.8
20260830075318 63 49 0.0 0.0 0.00 0.00 0.00 97 1026.1
20260830074813 63 328 0.0 0.0 0.00 0.00 0.00 97 1026.1
20260830074308 63 12 1.0 2.0 0.00 0.00 0.00 97 1025.9
20260830073804 63 357 2.0 3.0 0.00 0.00 0.00 97 1026.2
20260830073300 63 310 0.0 2.0 0.00 0.00 0.00 97 1026.1
20260830072754 64 0 2.0 3.0 0.00 0.00 0.00 97 1025.8
20260830072250 64 351 2.0 2.0 0.00 0.00 0.00 97 1025.9
20260830071744 64 339 1.0 2.0 0.00 0.00 0.00 97 1026.3
20260830071243 64 322 0.0 0.0 0.00 0.00 0.00 97 1026.0
20260830070737 64 66 0.0 2.0 0.00 0.00 0.00 97 1026.3
20260830070232 64 333 0.0 1.0 0.00 0.00 0.00 97 1026.1
20260830065731 64 322 0.0 0.0 0.00 0.00 0.00 97 1026.2
20260830065226 64 269 0.0 2.0 0.00 0.00 0.00 97 1026.2
20260830064724 64 352 0.0 0.0 0.00 0.00 0.00 97 1026.2
20260830064220 64 44 0.0 1.0 0.00 0.00 0.00 97 1026.3
20260830063719 64 334 0.0 1.0 0.00 0.00 0.00 97 1026.4
20260830063213 64 8 0.0 2.0 0.00 0.00 0.00 97 1026.5
20260830062708 64 339 1.0 1.0 0.00 0.00 0.00 97 1026.2
20260830062203 64 352 0.0 0.0 0.00 0.00 0.00 97 1026.3
20260830061702 64 334 2.0 2.0 0.00 0.00 0.00 97 1026.3
20260830061158 64 321 0.0 2.0 0.00 0.00 0.00 97 1026.2
20260830060655 64 327 1.0 2.0 0.00 0.00 0.00 97 1026.4
20260830060151 64 2 1.0 2.0 0.00 0.00 0.00 97 1026.4
20260830055645 64 2 0.0 0.0 0.00 0.00 0.00 97 1026.4
20260830055143 64 309 0.0 0.0 0.00 0.00 0.00 97 1026.3
20260830054637 64 50 0.0 0.0 0.00 0.00 0.00 97 1026.4
20260830054132 64 89 0.0 0.0 0.00 0.00 0.00 97 1026.1
20260830053628 64 37 0.0 0.0 0.00 0.00 0.00 97 1026.3
20260830053127 64 322 0.0 0.0 0.00 0.00 0.00 97 1026.5
20260830052623 64 310 0.0 0.0 0.00 0.00 0.00 97 1026.4
20260830052118 64 329 0.0 0.0 0.00 0.00 0.00 97 1026.3
20260830051612 64 37 0.0 0.0 0.00 0.00 0.00 97 1026.2
20260830051108 64 50 0.0 0.0 0.00 0.00 0.00 97 1026.5
20260830050606 63 310 0.0 0.0 0.00 0.00 0.00 97 1026.3
20260830045555 63 32 0.0 0.0 0.00 0.00 0.00 97 1026.5
20260830045050 64 0 0.0 0.0 0.00 0.00 0.00 97 1026.4
20260830044544 64 50 0.0 0.0 0.00 0.00 0.00 97 1026.1
20260830044039 64 325 0.0 1.0 0.00 0.00 0.00 97 1026.3
20260830043535 64 322 0.0 1.0 0.00 0.00 0.00 97 1026.3
20260830043033 64 319 1.0 1.0 0.00 0.00 0.00 97 1026.5
20260830042531 64 322 0.0 0.0 0.00 0.00 0.00 97 1026.2
20260830042026 64 322 0.0 0.0 0.00 0.00 0.00 97 1026.2
20260830041525 64 44 0.0 0.0 0.00 0.00 0.00 97 1026.3
20260830041020 64 50 0.0 1.0 0.00 0.00 0.00 97 1026.3
20260830040515 64 0 0.0 0.0 0.00 0.00 0.00 96 1026.2
20260830040010 64 46 0.0 0.0 0.00 0.00 0.00 97 1026.5
20260830035508 64 32 0.0 0.0 0.00 0.00 0.00 96 1026.3
20260830035003 64 32 0.0 0.0 0.00 0.00 0.00 96 1026.1
20260830034454 65 42 1.0 1.0 0.00 0.00 0.00 96 1026.3
20260830033953 65 306 0.0 2.0 0.00 0.00 0.00 96 1026.3
20260830033448 65 32 0.0 0.0 0.00 0.00 0.00 96 1026.0
20260830032944 65 18 0.0 1.0 0.00 0.00 0.00 96 1026.2
20260830032442 65 309 0.0 1.0 0.00 0.00 0.00 96 1026.3
20260830031938 65 331 0.0 1.0 0.00 0.00 0.00 96 1026.2
20260830031433 65 23 1.0 1.0 0.00 0.00 0.00 96 1026.1
20260830030928 65 3 1.0 2.0 0.00 0.00 0.00 96 1026.0
20260830030425 65 37 0.0 0.0 0.00 0.00 0.00 96 1026.3
20260830025918 65 37 0.0 0.0 0.00 0.00 0.00 95 1026.1
20260830025418 65 76 0.0 0.0 0.00 0.00 0.00 95 1026.1
20260830024917 65 300 2.0 2.0 0.00 0.00 0.00 95 1026.1
20260830024413 65 318 1.0 1.0 0.00 0.00 0.00 95 1025.9
20260830023910 66 51 0.0 1.0 0.00 0.00 0.00 95 1026.0
20260830023409 66 269 0.0 2.0 0.00 0.00 0.00 95 1025.9
20260830022908 66 25 0.0 2.0 0.00 0.00 0.00 95 1025.9
20260830022404 66 230 0.0 0.0 0.00 0.00 0.00 95 1026.1
20260830021903 66 320 0.0 2.0 0.00 0.00 0.00 95 1025.9
20260830021358 66 40 0.0 1.0 0.00 0.00 0.00 94 1026.0
20260830020852 66 230 0.0 1.0 0.00 0.00 0.00 94 1026.2
20260830020347 67 350 2.0 2.0 0.00 0.00 0.00 94 1026.0
20260830015842 67 50 0.0 0.0 0.00 0.00 0.00 94 1026.1
20260830015337 67 48 0.0 0.0 0.00 0.00 0.00 93 1026.1
20260830014833 67 353 0.0 1.0 0.00 0.00 0.00 93 1026.0
20260830014329 68 230 0.0 0.0 0.00 0.00 0.00 93 1026.1
20260830013824 68 212 0.0 0.0 0.00 0.00 0.00 92 1025.8
20260830013319 68 129 0.0 0.0 0.00 0.00 0.00 91 1025.9
20260830012815 68 48 0.0 2.0 0.00 0.00 0.00 91 1025.9
20260830012310 68 343 2.0 3.0 0.00 0.00 0.00 91 1025.7
20260830011806 69 50 0.0 0.0 0.00 0.00 0.00 90 1025.7
20260830011301 69 89 0.0 0.0 0.00 0.00 0.00 89 1025.8
20260830010756 70 321 0.0 1.0 0.00 0.00 0.00 89 1025.7
20260830010250 70 266 1.0 2.0 0.00 0.00 0.00 89 1025.5
20260830005750 70 342 2.0 2.0 0.00 0.00 0.00 88 1025.2
20260830005248 70 89 0.0 2.0 0.00 0.00 0.00 89 1025.3
20260830004743 70 309 0.0 0.0 0.00 0.00 0.00 88 1025.4
20260830004238 70 88 0.0 3.0 0.00 0.00 0.00 88 1025.4
20260830003732 70 343 0.0 1.0 0.00 0.00 0.00 87 1025.5
20260830003227 70 15 0.0 0.0 0.00 0.00 0.00 87 1025.4